DW9768 Weather Reports


time (UTC)temp
C
wind
direction
speed
KPH
gust
KPH
rain 1hr
cm
rain 24hr
cm
rain mn
cm
humidity
%
barometer
mb
20260506023007 2 333 0.0 0.0 0.00 0.00 0.00 79 1014.6
20260506021504 2 5 0.0 0.0 0.00 0.00 0.00 80 1014.6
20260506020002 1 9 0.0 0.0 0.00 0.00 0.00 80 1014.6
20260506014501 1 331 0.0 0.0 0.00 0.00 0.00 79 1014.7
20260506013106 2 331 0.0 0.0 0.00 0.00 0.00 79 1014.7
20260506011623 2 333 0.0 0.0 0.00 0.00 0.00 79 1014.6
20260506010106 2 328 0.0 0.0 0.00 0.00 0.00 79 1014.7
20260506004554 2 328 0.0 0.0 0.00 0.00 0.00 79 1014.7
20260506003055 2 338 1.6 4.8 0.00 0.00 0.00 79 1014.7
20260506001550 2 323 0.0 0.0 0.00 0.00 0.00 78 1014.8
20260506000057 3 328 3.2 6.4 0.00 0.00 0.00 78 1014.7
20260505234548 3 324 1.6 4.8 0.00 0.00 0.00 78 1014.7
20260505233046 3 330 1.6 6.4 0.00 0.00 0.00 77 1014.7
20260505231545 3 322 0.0 0.0 0.00 0.00 0.00 77 1014.7
20260505230043 3 322 0.0 0.0 0.00 0.00 0.00 77 1014.6
20260505224542 3 322 0.0 0.0 0.00 0.00 0.00 76 1014.7
20260505223039 3 322 0.0 0.0 0.00 0.00 0.00 75 1014.7
20260505221541 3 322 0.0 0.0 0.00 0.00 0.00 75 1014.7
20260505220048 3 321 0.0 0.0 0.00 0.00 0.00 74 1014.7
20260505214534 3 313 0.0 0.0 0.00 0.00 0.00 73 1014.7
20260505213037 3 309 0.0 0.0 0.00 0.00 0.00 72 1014.7
20260505211538 3 314 0.0 4.8 0.00 0.00 0.00 71 1014.6
20260505210036 4 339 3.2 9.7 0.00 0.00 0.00 70 1014.6
20260505204530 4 294 4.8 11.3 0.00 0.00 0.00 68 1014.6
20260505203030 5 296 4.8 14.5 0.00 0.00 0.00 68 1014.5
20260505201629 5 264 4.8 12.9 0.00 0.00 0.00 69 1014.7
20260505200028 5 311 3.2 9.7 0.00 0.00 0.00 71 1014.7
20260505194527 5 301 3.2 12.9 0.00 0.00 0.00 69 1014.6
20260505193034 5 298 4.8 16.1 0.00 0.00 0.00 67 1014.5
20260505191525 5 313 6.4 12.9 0.00 0.00 0.00 68 1014.4
20260505190023 5 289 9.7 19.3 0.00 0.00 0.00 68 1014.2
20260505184523 6 330 4.8 16.1 0.00 0.00 0.00 65 1014.1
20260505183031 6 329 6.4 17.7 0.00 0.00 0.00 66 1014.0
20260505181520 6 318 4.8 16.1 0.00 0.00 0.00 63 1014.1
20260505180021 6 321 6.4 14.5 0.00 0.00 0.00 60 1014.0
20260505174519 6 286 6.4 19.3 0.00 0.00 0.00 62 1014.0
20260505173019 6 269 6.4 22.5 0.00 0.00 0.00 70 1013.9
20260505171519 6 317 14.5 20.9 0.00 0.00 0.00 70 1014.0
20260505170020 6 312 12.9 22.5 0.00 0.00 0.00 61 1013.9
20260505164517 6 342 9.7 19.3 0.00 0.00 0.00 61 1013.9
20260505163017 6 275 6.4 16.1 0.00 0.00 0.00 69 1013.9
20260505161516 6 245 12.9 20.9 0.00 0.00 0.00 63 1013.9
20260505153012 7 289 11.3 27.4 0.00 0.03 0.00 65 1013.9
20260505151511 6 323 12.9 22.5 0.00 0.03 0.00 64 1014.0
20260505124609 5 257 12.9 22.5 0.00 0.03 0.00 79 1014.2
20260505123059 5 294 19.3 29.0 0.00 0.03 0.00 77 1014.2
20260505121553 6 292 11.3 20.9 0.00 0.03 0.00 70 1014.0
20260505114652 5 227 8.0 16.1 0.00 0.03 0.00 68 1013.9
20260505113109 5 249 9.7 16.1 0.00 0.03 0.00 68 1013.9
20260505111547 5 246 6.4 14.5 0.00 0.03 0.00 66 1013.8
20260505101542 4 262 6.4 12.9 0.00 0.03 0.00 74 1013.7
20260505100040 4 264 9.7 16.1 0.00 0.03 0.00 75 1013.7
20260505094539 4 263 9.7 16.1 0.00 0.03 0.00 74 1013.8
20260505093038 4 297 9.7 17.7 0.00 0.03 0.00 74 1013.9
20260505091536 5 299 9.7 16.1 0.00 0.03 0.00 66 1013.8
20260505090034 5 304 4.8 12.9 0.00 0.03 0.00 64 1013.7
20260505084543 5 157 1.6 4.8 0.00 0.03 0.00 60 1013.5
20260505083031 5 180 1.6 4.8 0.00 0.03 0.00 60 1013.4
20260505081529 6 145 1.6 6.4 0.00 0.03 0.00 59 1013.3
20260505080026 5 74 1.6 4.8 0.00 0.03 0.00 62 1013.1
20260505074523 5 314 3.2 9.7 0.00 0.03 0.00 61 1013.0
20260505073025 5 221 0.0 0.0 0.00 0.03 0.00 63 1013.1
20260505071520 5 247 0.0 0.0 0.00 0.03 0.00 66 1013.0
20260505070016 5 281 0.0 0.0 0.00 0.03 0.00 67 1013.0
20260505064512 5 321 0.0 0.0 0.00 0.03 0.00 67 1013.0
20260505063011 4 184 0.0 0.0 0.00 0.03 0.00 67 1012.9
20260505061515 4 205 0.0 0.0 0.00 0.03 0.00 70 1013.0
20260505060010 4 152 0.0 0.0 0.00 0.03 0.00 73 1013.1
20260505054505 4 130 0.0 0.0 0.00 0.03 0.00 77 1013.1
20260505053005 3 45 0.0 0.0 0.00 0.03 0.00 80 1013.2
20260505051600 3 348 0.0 0.0 0.00 0.03 0.00 80 1013.2
20260505051502 3 348 0.0 0.0 0.00 0.03 0.00 81 1013.2
20260505050109 3 5 0.0 0.0 0.00 0.03 0.00 80 1013.1
20260505041555 2 338 0.0 0.0 0.00 0.03 0.00 81 1012.6
20260505040054 2 338 0.0 1.6 0.00 0.03 0.00 82 1012.5
20260505034614 2 338 0.0 3.2 0.00 0.03 0.00 83 1012.3
20260505033056 2 338 0.0 0.0 0.00 0.03 0.00 83 1012.5
20260505031555 2 338 0.0 0.0 0.00 0.03 0.00 82 1012.6
20260505030053 1 338 0.0 3.2 0.00 0.03 0.00 82 1012.6
20260505024551 1 338 0.0 1.6 0.00 0.03 0.00 82 1012.5